Houma, LA

8:41 PM CDT on April 27, 2017 (GMT -0500)
Houma-terrebonne

Weather History for KHUM - July, 2013

Change the Weather History Date:

Saturday, July 6, 2013

  Actual Average Record
Temperature  
Mean Temperature 80 °F -  
Max Temperature 86 °F 89 °F 97 °F (1951)
Min Temperature 73 °F 72 °F 62 °F (1947)
Cooling Degree Days 14    
Growing Degree Days 30 (Base 50)    
Moisture  
Dew Point 71 °F    
Average Humidity 83    
Maximum Humidity 94    
Minimum Humidity 62    
Precipitation  
Precipitation 0.00 in - - ()
Sea Level Pressure  
Sea Level Pressure 29.97 in    
Wind  
Wind Speed 4 mph (ESE)    
Max Wind Speed 12 mph    
Max Gust Speed -    
Visibility 8 miles    
Events Rain    
Averages and records for this station are not official NWS values.
T = Trace of Precipitation, MM = Missing Value Source: NWS Daily Summary

Daily Weather History Graph

Daily Weather History Graph

Search for Another Location

Airport or City:

Trip Planner

Search our weather history database for the weather conditions in past years. The results will help you decide how hot, cold, wet, or windy it might be!

Date:

Astronomy

Jul. 06, 2013 Rise Set
Actual Time 6:08 AM CDT 8:06 PM CDT
Civil Twilight 5:41 AM CDT 8:33 PM CDT
Nautical Twilight 5:08 AM CDT 9:06 PM CDT
Astronomical Twilight 4:33 AM CDT 9:40 PM CDT
Moon 4:50 AM CDT (7/6) 6:52 PM CDT (7/6)
Length of Visible Light 14h 52m
Length of Day
13h 58m
Waning Crescent, 2% of the Moon is Illuminated
Jul 6
Waning Crescent
Jul 8
New
Jul 15
First Quarter
Jul 22
Full
Jul 29
Last Quarter

Hourly Weather History & Observations

Time (CDT) Temp. Heat Index Dew Point Humidity Pressure Visibility Wind Dir Wind Speed Gust Speed Precip Events Conditions
12:15 AM 74.3 °F - 70.2 °F 87% 29.98 in 7.0 mi East 4.6 mph - N/A   Overcast
12:35 AM 73.9 °F - 69.8 °F 87% 29.98 in 10.0 mi East 3.5 mph - N/A   Overcast
12:55 AM 74.3 °F - 70.0 °F 86% 29.98 in 10.0 mi East 3.5 mph - N/A   Overcast
1:15 AM 74.5 °F - 70.2 °F 86% 29.97 in 7.0 mi ENE 3.5 mph - N/A   Overcast
1:35 AM 74.3 °F - 70.5 °F 88% 29.97 in 7.0 mi Calm Calm - N/A   Overcast
1:55 AM 74.8 °F - 71.1 °F 88% 29.97 in 7.0 mi NNE 4.6 mph - N/A   Overcast
2:15 AM 75.2 °F - 71.1 °F 87% 29.96 in 7.0 mi NNE 4.6 mph - N/A   Overcast
2:35 AM 74.8 °F - 71.1 °F 88% 29.95 in 7.0 mi Calm Calm - N/A   Overcast
2:55 AM 74.5 °F - 70.9 °F 88% 29.95 in 7.0 mi Calm Calm - N/A   Overcast
3:15 AM 74.3 °F - 70.7 °F 88% 29.95 in 7.0 mi Calm Calm - N/A   Overcast
3:35 AM 73.8 °F - 70.7 °F 90% 29.95 in 7.0 mi Calm Calm - N/A   Overcast
3:55 AM 74.1 °F - 70.9 °F 90% 29.96 in 7.0 mi Calm Calm - N/A   Overcast
4:15 AM 73.9 °F - 70.7 °F 90% 29.96 in 7.0 mi Calm Calm - N/A   Overcast
4:35 AM 73.8 °F - 70.7 °F 90% 29.95 in 7.0 mi Calm Calm - N/A   Overcast
4:55 AM 73.9 °F - 70.9 °F 90% 29.95 in 7.0 mi Calm Calm - N/A   Overcast
5:15 AM 73.4 °F - 70.5 °F 91% 29.96 in 7.0 mi Calm Calm - N/A   Overcast
5:35 AM 73.9 °F - 71.1 °F 91% 29.96 in 7.0 mi Calm Calm - N/A   Overcast
5:50 AM 73.4 °F - 71.6 °F 94% 29.96 in 5.0 mi Calm Calm - N/A   Mostly Cloudy
5:55 AM 73.6 °F - 70.7 °F 91% 29.96 in 7.0 mi Calm Calm - N/A   Overcast
6:50 AM 73.4 °F - 71.6 °F 94% 29.97 in 5.0 mi Calm Calm - N/A   Scattered Clouds
7:50 AM 75.2 °F - 71.6 °F 89% 29.98 in 7.0 mi Calm Calm - N/A   Scattered Clouds
8:50 AM 78.8 °F - 71.6 °F 78% 29.99 in 7.0 mi Calm Calm - N/A   Scattered Clouds
9:50 AM 82.4 °F 88.2 °F 73.4 °F 74% 29.99 in 7.0 mi East 6.9 mph - N/A   Scattered Clouds
10:50 AM 84.2 °F 90.9 °F 73.4 °F 70% 29.99 in 7.0 mi East 6.9 mph - N/A   Scattered Clouds
11:50 AM 84.2 °F 90.9 °F 73.4 °F 70% 30.00 in 7.0 mi ESE 6.9 mph - N/A   Scattered Clouds
12:50 PM 82.4 °F 87.2 °F 71.6 °F 70% 30.00 in 7.0 mi ESE 9.2 mph - N/A   Scattered Clouds
1:55 PM 82.4 °F 87.2 °F 71.6 °F 70% 29.98 in 7.0 mi SSE 9.2 mph - N/A   Scattered Clouds
2:50 PM 82.4 °F 87.2 °F 71.6 °F 70% 29.97 in 7.0 mi SSE 9.2 mph - N/A   Scattered Clouds
3:50 PM 86.0 °F 91.8 °F 71.6 °F 62% 29.97 in 7.0 mi ESE 9.2 mph - N/A   Scattered Clouds
4:50 PM 84.2 °F 89.6 °F 71.6 °F 66% 29.97 in 7.0 mi ESE 9.2 mph - N/A   Scattered Clouds
5:50 PM 80.6 °F 84.6 °F 71.6 °F 74% 29.97 in 7.0 mi SE 9.2 mph - N/A   Mostly Cloudy
6:50 PM 78.8 °F - 71.6 °F 78% 29.97 in 7.0 mi SE 5.8 mph - N/A   Mostly Cloudy
7:15 PM 78.3 °F - 71.6 °F 80% 29.96 in 7.0 mi SE 9.2 mph - N/A   Mostly Cloudy
7:35 PM 78.3 °F - 71.8 °F 80% 29.96 in 10.0 mi SE 9.2 mph - N/A   Scattered Clouds
7:55 PM 78.1 °F - 71.4 °F 80% 29.96 in 7.0 mi SE 10.4 mph - N/A   Mostly Cloudy
8:15 PM 77.9 °F - 71.2 °F 80% 29.97 in 10.0 mi ESE 9.2 mph - N/A   Mostly Cloudy
8:35 PM 77.5 °F - 71.1 °F 80% 29.97 in 10.0 mi SE 11.5 mph - N/A   Scattered Clouds
8:55 PM 77.4 °F - 71.2 °F 81% 29.98 in 10.0 mi SE 3.5 mph - N/A   Clear
9:15 PM 77.0 °F - 70.7 °F 81% 29.99 in 10.0 mi SE 4.6 mph - N/A   Clear
9:35 PM 76.8 °F - 70.7 °F 81% 29.99 in 10.0 mi SE 5.8 mph - N/A   Mostly Cloudy
9:55 PM 77.0 °F - 70.9 °F 81% 30.00 in 10.0 mi ESE 6.9 mph - N/A   Mostly Cloudy
10:15 PM 76.6 °F - 71.4 °F 84% 30.01 in 7.0 mi ESE 3.5 mph - N/A   Mostly Cloudy
10:35 PM 76.5 °F - 71.4 °F 84% 30.01 in 10.0 mi ESE 4.6 mph - N/A   Overcast
10:55 PM 76.1 °F - 72.0 °F 87% 30.01 in 7.0 mi East 4.6 mph - N/A Rain Rain
11:15 PM 76.1 °F - 72.3 °F 88% 30.00 in 10.0 mi East 5.8 mph - N/A   Mostly Cloudy
11:35 PM 75.9 °F - 72.3 °F 89% 30.00 in 10.0 mi SE 4.6 mph - N/A   Scattered Clouds
11:55 PM 75.7 °F - 72.5 °F 90% 29.99 in 10.0 mi Calm Calm - N/A   Clear